FLOCK 3P-59 (42022 NORAD) Tracking and Keplerian Element Data

This shows tracking and keplerian element data for the satellite.

Feedback or suggestion? Click here.




ElementValue
Catalog42022
NameFLOCK 3P-59
Epoch Orbit17265
Epoch Day91.74385403
Epoch Year2020
RAAN161.3743
Inclination97.3713
Eccentricity0.0006831
Argument of Perigee195.0863
Mean Anonmoly165.0173
Mean Motion15.27641094
Decay Rate3.233E-05
L11 42022U 17008CC 20091.74385403 .00003233 00000-0 12235-3 0 9999
L22 42022 97.3713 161.3743 0006831 195.0863 165.0173 15.27641094172650

Live tracking and technical data element details for FLOCK 3P-59 (NORAD 42022). FLOCK 3P-59 can be tracked NOW for your location showing map with azimuth and elevation plus other details from your city location.

Track the satellite on the map from your city or location and see movement details for azimuth, elevation, latitude, longitude, range, height, and movement on the map or in text.







IsCatalogInMostPopularTable: catalog: 42022, numindb: 373
Update: records affected: 1



GetName: 42022 FLOCK 3P-59

Hit Count: updated at: Thu, 02 Apr 2020 12:15:01 GMT